Miscellaneous Local Product
Issued by NWS Hastings, NE

Home | Current Version | Previous Version | Text Only | Print | Product List | Glossary On
Versions: 1 2 3 4 5 6 7 8 9 10 11 12 13 14 15 16 17 18 19 20 21 22 23 24 25 26 27 28 29 30 31 32 33 34 35 36 37 38 39 40 41 42 43 44 45 46 47 48 49 50
351
AXUS43 KGID 090602
MISGRI

GID CWA HOURLY WEATHER ROUNDUP
NATIONAL WEATHER SERVICE HASTINGS NE
1200 AM CST TUE FEB 09 2016

NOTE: "FAIR" INDICATES FEW OR NO CLOUDS BELOW 12,000 FEET WITH NO
SIGNIFICANT WEATHER AND/OR OBSTRUCTIONS TO VISIBILITY.

...SOUTH CENTRAL NEBRASKA...

CITY           SKY/WX    TMP DP  RH WIND       PRES   REMARKS
GRAND ISLAND   CLEAR     20  12  71 W10       30.16S WCI   9
HASTINGS       CLEAR     22  13  68 NW10      30.15S WCI  11
ORD            CLEAR     26  17  68 NW12      30.15S WCI  16
YORK           MOCLDY    27  19  74 NW15      30.13F WCI  15
AURORA         CLEAR     24  16  71 NW14      30.13F WCI  12
LEXINGTON      CLEAR     24  18  77 W12       30.19F WCI  13
HOLDREGE       PTCLDY    26  15  61 W10       30.18F WCI  17
HEBRON         CLEAR     28  19  68 NW10      30.16S WCI  19

...NEBRASKA PANHANDLE...

CITY           SKY/WX    TMP DP  RH WIND       PRES   REMARKS
CHADRON        MOCLDY    37  28  70 NW10      30.22F WCI  30
ALLIANCE       PTCLDY    36  27  69 NW18      30.19F WCI  26
SCOTTSBLUFF    CLEAR     31  26  82 NW9       30.26S WCI  23
SIDNEY         CLEAR     32  25  75 NW14      30.24F WCI  22

...WESTERN AND NORTH CENTRAL NEBRASKA...

CITY           SKY/WX    TMP DP  RH WIND       PRES   REMARKS
VALENTINE      CLOUDY    31  17  56 NW13      30.19F WCI  21
AINSWORTH      CLOUDY    32  16  52 NW13      30.17F WCI  22
ONEILL         MOCLDY    29  19  67 N14       30.15S WCI  18
BROKEN BOW     MOCLDY    29  17  61 NW16      30.16F WCI  17
IMPERIAL       CLOUDY    31  24  75 NW7       30.24S WCI  24
NORTH PLATTE   CLOUDY    28  19  69 NW8       30.20F WCI  20
MCCOOK         CLOUDY    31  21  66 W13       30.23F WCI  21

...EASTERN NEBRASKA...

CITY           SKY/WX    TMP DP  RH WIND       PRES   REMARKS
NORFOLK        CLOUDY    26  15  63 N18       30.11S WCI  13
SO SIOUX CITY  CLEAR     22  11  62 N26G37    30.10R WCI   5
TEKAMAH        CLEAR     24  11  57 N21G29    30.10F WCI   9
COLUMBUS       CLEAR     27  12  54 NW13G18   30.12S WCI  16
ALBION         CLOUDY    27  18  69 NW13      30.13S WCI  16
OMAHA EPPLEY   CLEAR     23  15  71 N15       30.08F WCI  10
OFFUTT AFB     CLEAR     26  14  62 N13G25    30.08S WCI  14
MILLARD        CLEAR     28  16  62 NW13G22   30.09F WCI  17
LINCOLN        CLOUDY    30  20  66 NW15      30.12S WCI  19
NEBRASKA CITY  CLEAR     28  17  62 N15G23    30.07F WCI  16
BEATRICE       CLOUDY    30  22  70 NW15      30.11F WCI  19
FALLS CITY     PTCLDY    30  18  60 NW16G24   30.08S WCI  19

...NORTHERN KANSAS...

CITY           SKY/WX    TMP DP  RH WIND       PRES   REMARKS
GOODLAND       CLOUDY    25  21  85 NW6       30.24F WCI  18
HILL CITY      CLOUDY    32  23  69 W7        30.24S WCI  26
NORTON         CLOUDY    34  18  51 NW13      30.21F WCI  25
PHILLIPSBURG   CLOUDY    32  21  64 CALM      30.22F
SMITH CENTER   MOCLDY    27  19  74 CALM      30.20F
BELOIT         CLEAR     28  19  69 W10       30.18F WCI  19
HAYS           MOCLDY    30  16  55 W9        30.23S WCI  22
RUSSELL        PTCLDY    30  21  69 NW9       30.22S WCI  22
CONCORDIA      CLEAR     26  18  71 W8        30.17S WCI  18
SALINA         CLEAR     31  19  61 W13       30.19F WCI  21
TOPEKA         MOCLDY    32  20  61 NW13      30.10F WCI  22



USA.gov is the U.S. government's official web portal to all federal, state and local government web resources and services.